Harstad/Narvik

Airport
ICAO code: 
ENEV
Summary
ICAO Region: 
EUR
Territory: 
Location: 
Evenes, Norway,
Serving: 
Harstad/Narvik
Coordinates: 
Aerial View: 
68° 29' 18" N, 16° 40' 42" E
Airport WX: 
Low Level Turbulence
Metar
Observation
ENEV 190150Z VRB03KT 9999 -RA FEW020 BKN029 04/03 Q0983 RMK WIND 1400FT 25008KT
Station
Evenes
Date/Time
2022-01-19 01:50:00
Wind speed
03 kts
Lowest cloud amount
few clouds
Temperature
4°C
Dew point
3°C
Humidity
93%
QNH
983 hPa
Weather condition
light rain

Description

International airport at Evenes which serves the towns of Harstad and Narvik, northern Norway.

Climatology

Subpolar Oceanic climate (Köppen climate classification Cfc) - uniform precipitation distribution, temperatures are moderated by the proximity of the ocean and warm currents - cool summers and comparatively mild winters.

Runways

Designator Length Width Surface Rops
17/35 2815 45 ASP Yes/Yes
Airport map: 
Aerial View: 

Accidents and Serious Incidents at or in the vicinity of ENEV

SKYbrary Partners:

Safety knowledge contributed by: